Simultaneous Nadir Overpasses (SNOs) Predictions

Prediction of SNOs between NOAA-19 and NPP Satellite Orbit:

Table of predicted SNOs for the next 14.0 days since TLE Epoch: 3/15/2019
Index Date (NOAA-19) Time (NOAA-19) Lat,Lon (NOAA-19) SZA (NOAA-19 ) Date (NPP) Time (NPP) Lat,Lon (NPP) SZA (NPP ) Distance(km) Time Diff (sec)
1 03/29/2019 09:06:57 79.99, -0.16 79.55 03/29/2019 09:08:01 80.01, 4.07 79.03 81.87 64
2 03/29/2019 09:57:47 -80.18, 169.79 100.65 03/29/2019 09:58:51 -80.16, 169.81 100.70 2.60 64
3 03/29/2019 10:48:50 80.17, -23.16 79.36 03/29/2019 10:49:37 80.19, -23.17 79.35 1.85 47
4 03/29/2019 11:39:48 -80.18, 144.26 100.67 03/29/2019 11:40:21 -80.16, 144.39 100.72 3.16 33
5 03/29/2019 12:30:51 80.17, -48.69 79.33 03/29/2019 12:31:07 80.19, -48.60 79.33 3.02 16
6 03/29/2019 13:21:49 -80.18, 118.72 100.70 03/29/2019 13:21:52 -80.19, 118.66 100.68 2.18 3
7 03/29/2019 14:12:51 80.19, -73.89 79.28 03/29/2019 14:12:37 80.19, -74.02 79.31 2.47 14
8 03/29/2019 15:03:50 -80.17, 93.19 100.73 03/29/2019 15:03:22 -80.20, 93.24 100.70 2.73 28
9 03/29/2019 15:54:52 80.18, -99.42 79.26 03/29/2019 15:54:07 80.20, -99.44 79.29 1.44 45
10 03/29/2019 16:45:50 -80.19, 67.98 100.77 03/29/2019 16:44:52 -80.20, 67.82 100.72 3.08 58




NCC Satellite Simultaneous Nadir Overpasses (SNOs) Prediction Service
